FW7173 Weather Reports


time (UTC)temp
C
wind
direction
speed
KPH
gust
KPH
rain 1hr
cm
rain 24hr
cm
rain mn
cm
humidity
%
barometer
mb
20260506192920 15 92 1.6 6.4 0.00 0.61 0.61 95 1008.1
20260506192417 15 159 6.4 14.5 0.00 0.61 0.61 95 1008.0
20260506191914 15 120 4.8 9.7 0.00 0.61 0.61 95 1008.3
20260506191410 15 120 9.7 11.3 0.00 0.61 0.61 95 1008.4
20260506190908 15 146 8.0 11.3 0.00 0.61 0.61 95 1008.6
20260506190404 15 156 9.7 14.5 0.05 0.61 0.61 95 1008.5
20260506185901 15 271 1.6 6.4 0.05 0.61 0.61 95 1008.7
20260506185358 15 159 9.7 9.7 0.00 0.61 0.61 95 1008.7
20260506184855 15 160 6.4 6.4 0.00 0.61 0.61 95 1008.6
20260506184352 15 149 3.2 6.4 0.05 0.61 0.61 95 1008.4
20260506183849 15 190 4.8 11.3 0.05 0.61 0.61 94 1008.8
20260506183344 15 235 3.2 9.7 0.00 0.58 0.58 94 1008.5
20260506182842 15 122 0.0 14.5 0.00 0.58 0.58 94 1008.7
20260506182339 15 289 0.0 9.7 0.00 0.58 0.58 94 1008.6
20260506181836 15 160 4.8 8.0 0.00 0.58 0.58 94 1008.8
20260506181334 15 152 12.9 14.5 0.05 0.58 0.58 94 1008.8
20260506180831 15 176 4.8 8.0 0.05 0.58 0.58 94 1008.6
20260506180327 15 158 8.0 12.9 0.00 0.58 0.58 94 1008.9
20260506175823 15 131 1.6 6.4 0.00 0.58 0.58 93 1008.5
20260506175320 15 249 8.0 19.3 0.05 0.58 0.58 93 1008.7
20260506174818 15 155 16.1 22.5 0.05 0.58 0.58 94 1008.8
20260506174315 15 158 6.4 11.3 0.05 0.56 0.56 93 1008.7
20260506173812 15 183 19.3 20.9 0.05 0.56 0.56 93 1008.8
20260506173309 15 190 4.8 14.5 0.05 0.56 0.56 93 1008.7
20260506172806 15 103 11.3 14.5 0.23 0.56 0.56 93 1008.8
20260506172306 15 171 16.1 22.5 0.18 0.56 0.56 93 1008.9
20260506171800 15 111 11.3 16.1 0.00 0.51 0.51 93 1009.1
20260506171257 15 168 0.0 8.0 0.05 0.51 0.51 93 1008.8
20260506170755 15 152 11.3 22.5 0.05 0.51 0.51 93 1009.0
20260506170251 15 153 8.0 17.7 0.00 0.51 0.51 94 1009.2
20260506165750 15 137 8.0 17.7 0.05 0.51 0.51 94 1009.0
20260506165247 15 161 6.4 8.0 0.18 0.51 0.51 94 1009.0
20260506164743 15 198 8.0 9.7 0.18 0.51 0.51 94 1009.0
20260506164240 15 132 3.2 17.7 0.18 0.48 0.48 94 1008.9
20260506163737 15 104 6.4 14.5 0.30 0.46 0.46 94 1008.9
20260506163232 15 185 9.7 11.3 0.18 0.43 0.43 93 1008.5
20260506162728 15 183 12.9 20.9 0.13 0.43 0.43 93 1008.9
20260506162226 15 178 12.9 14.5 0.13 0.41 0.41 93 1009.1
20260506161723 15 139 4.8 19.3 0.30 0.41 0.41 93 1009.3
20260506161220 15 167 8.0 8.0 0.30 0.38 0.38 93 1009.4
20260506160718 15 138 6.4 9.7 0.23 0.36 0.36 93 1009.7
20260506160214 15 148 6.4 11.3 0.13 0.33 0.33 93 1010.0
20260506155713 15 176 4.8 6.4 0.05 0.30 0.30 92 1010.1
20260506155210 15 177 6.4 12.9 0.13 0.28 0.28 92 1010.1
20260506153311 15 135 6.4 11.3 0.18 0.23 0.23 90 1010.4
20260506152808 16 167 4.8 17.7 0.13 0.20 0.20 89 1010.6
20260506152306 16 172 6.4 12.9 0.13 0.18 0.18 89 1010.4
20260506151804 16 172 4.8 9.7 0.13 0.18 0.18 89 1010.2
20260506151301 16 86 3.2 9.7 0.18 0.18 0.18 88 1009.9
20260506150757 16 130 3.2 6.4 0.23 0.15 0.15 88 1010.0
20260506150303 16 133 3.2 6.4 0.18 0.15 0.15 86 1010.0
20260506145751 16 219 3.2 6.4 0.18 0.13 0.13 86 1010.1
20260506145248 16 143 4.8 6.4 0.23 0.10 0.10 84 1010.1
20260506144745 16 143 3.2 9.7 0.30 0.10 0.10 82 1010.2
20260506144242 16 173 14.5 17.7 0.23 0.08 0.08 81 1010.3
20260506143740 17 127 9.7 14.5 0.18 0.05 0.05 79 1010.5
20260506143237 17 203 1.6 30.6 0.13 0.03 0.03 77 1010.4
20260506142735 17 160 4.8 25.7 0.05 0.03 0.03 75 1010.4
20260506142233 17 177 9.7 24.1 0.00 0.00 0.00 73 1010.3
20260506141731 17 162 12.9 14.5 0.00 0.00 0.00 73 1010.2
20260506141229 18 148 14.5 19.3 0.00 0.00 0.00 73 1010.2
20260506140726 17 165 6.4 14.5 0.00 0.00 0.00 74 1010.2
20260506140223 17 350 4.8 9.7 0.00 0.00 0.00 74 1010.0
20260506135720 17 198 3.2 4.8 0.05 0.00 0.00 74 1009.9
20260506135216 17 159 8.0 8.0 0.05 0.00 0.00 75 1009.9
20260506134713 17 204 4.8 6.4 0.00 0.00 0.00 74 1010.2
20260506134209 17 173 6.4 9.7 0.00 0.00 0.00 74 1010.4
20260506133707 17 242 3.2 11.3 0.00 0.00 0.00 74 1010.2
20260506133203 17 170 6.4 11.3 0.00 0.00 0.00 74 1010.2
20260506132700 17 148 11.3 12.9 0.00 0.00 0.00 74 1010.2
20260506132157 17 170 4.8 14.5 0.00 0.00 0.00 74 1010.5
20260506131655 17 169 17.7 17.7 0.00 0.00 0.00 74 1010.2
20260506131151 17 224 4.8 9.7 0.00 0.00 0.00 74 1010.5
20260506130648 17 166 14.5 22.5 0.00 0.00 0.00 74 1010.4
20260506130145 17 172 11.3 22.5 0.00 0.00 0.00 73 1010.4
20260506125643 17 210 6.4 17.7 0.00 0.00 0.00 74 1010.4
20260506125141 17 159 12.9 12.9 0.00 0.00 0.00 74 1010.5
20260506124638 17 171 11.3 22.5 0.00 0.00 0.00 74 1010.3
20260506124136 17 231 1.6 19.3 0.00 0.00 0.00 74 1010.4
20260506123633 17 193 8.0 11.3 0.00 0.00 0.00 75 1010.2
20260506123132 17 121 6.4 11.3 0.00 0.00 0.00 74 1010.1
20260506122628 17 178 9.7 11.3 0.00 0.00 0.00 75 1009.9
20260506122126 17 166 14.5 17.7 0.00 0.00 0.00 75 1010.2
20260506121624 17 267 3.2 8.0 0.00 0.00 0.00 75 1010.4
20260506121120 17 259 3.2 11.3 0.00 0.00 0.00 75 1010.1
20260506120618 17 145 9.7 17.7 0.00 0.00 0.00 75 1010.4
20260506120115 17 168 12.9 14.5 0.00 0.00 0.00 75 1010.2
20260506115613 17 164 6.4 11.3 0.00 0.00 0.00 75 1010.2
20260506115111 17 158 14.5 16.1 0.00 0.00 0.00 75 1010.2
20260506114608 17 151 6.4 11.3 0.00 0.00 0.00 75 1010.1
20260506114106 17 186 3.2 12.9 0.00 0.00 0.00 76 1010.1
20260506113604 17 140 4.8 9.7 0.00 0.00 0.00 76 1010.2
20260506113101 17 172 14.5 16.1 0.00 0.00 0.00 76 1009.9
20260506112557 17 136 11.3 12.9 0.00 0.00 0.00 76 1010.2
20260506112055 17 141 9.7 12.9 0.00 0.00 0.00 76 1010.5
20260506111553 17 173 11.3 11.3 0.00 0.00 0.00 77 1010.2
20260506111050 17 156 4.8 9.7 0.00 0.00 0.00 77 1010.1
20260506110547 17 140 8.0 16.1 0.00 0.00 0.00 77 1010.1
20260506110044 17 179 3.2 9.7 0.00 0.00 0.00 76 1010.2
20260506105540 17 182 8.0 16.1 0.00 0.00 0.00 76 1009.9
20260506105038 17 123 6.4 11.3 0.00 0.00 0.00 76 1009.9
20260506104536 17 199 6.4 12.9 0.00 0.00 0.00 77 1009.8
20260506104033 17 100 6.4 16.1 0.00 0.00 0.00 77 1009.7
20260506103531 17 116 6.4 16.1 0.00 0.00 0.00 76 1009.7
20260506103027 17 169 8.0 11.3 0.00 0.00 0.00 76 1009.4
20260506102526 17 118 6.4 14.5 0.00 0.00 0.00 76 1009.7
20260506102023 17 113 6.4 11.3 0.00 0.00 0.00 77 1009.7
20260506101519 17 122 6.4 12.9 0.00 0.00 0.00 77 1009.5
20260506101016 17 167 11.3 12.9 0.00 0.00 0.00 76 1009.7
20260506100515 17 180 8.0 9.7 0.00 0.00 0.00 77 1009.9
20260506100013 17 100 9.7 9.7 0.00 0.00 0.00 77 1009.9
20260506095511 17 179 8.0 14.5 0.00 0.00 0.00 77 1010.0
20260506095006 17 241 3.2 12.9 0.00 0.00 0.00 77 1009.9
20260506094505 17 150 8.0 19.3 0.00 0.00 0.00 76 1009.9
20260506094002 17 170 4.8 9.7 0.00 0.00 0.00 77 1009.8
20260506093501 17 139 6.4 9.7 0.00 0.00 0.00 77 1009.9
20260506092958 17 140 8.0 9.7 0.00 0.00 0.00 77 1009.9
20260506092455 17 154 8.0 11.3 0.00 0.00 0.00 77 1009.8
20260506091952 17 148 8.0 9.7 0.00 0.00 0.00 77 1009.8
20260506091450 17 163 6.4 11.3 0.00 0.00 0.00 76 1009.7
20260506090947 17 161 9.7 12.9 0.00 0.00 0.00 77 1009.7
20260506090445 17 132 4.8 8.0 0.00 0.00 0.00 76 1009.5
20260506085941 17 151 6.4 11.3 0.00 0.00 0.00 76 1009.9
20260506085438 17 170 8.0 9.7 0.00 0.00 0.00 76 1009.9
20260506084934 17 149 8.0 9.7 0.00 0.00 0.00 75 1010.0
20260506084431 17 142 6.4 9.7 0.00 0.00 0.00 75 1009.8
20260506083927 17 158 8.0 9.7 0.00 0.00 0.00 75 1009.9
20260506083425 17 77 9.7 12.9 0.00 0.00 0.00 74 1009.8
20260506082922 17 161 6.4 9.7 0.00 0.00 0.00 74 1009.8
20260506082419 17 153 6.4 8.0 0.00 0.00 0.00 74 1009.9
20260506081914 17 172 6.4 6.4 0.00 0.00 0.00 74 1009.8
20260506081413 17 131 6.4 9.7 0.00 0.00 0.00 73 1010.1
20260506080910 17 154 9.7 11.3 0.00 0.00 0.00 73 1009.9
20260506080407 17 132 8.0 11.3 0.00 0.00 0.00 72 1009.9
20260506073351 17 98 4.8 9.7 0.00 0.00 0.00 68 1009.9
20260506072847 18 150 8.0 8.0 0.00 0.00 0.00 67 1010.1
20260506072345 18 154 4.8 12.9 0.00 0.00 0.00 67 1010.2
20260506071843 18 166 11.3 12.9 0.00 0.00 0.00 67 1010.2
20260506071341 18 176 8.0 11.3 0.00 0.00 0.00 67 1010.3
20260506070837 18 166 3.2 6.4 0.00 0.00 0.00 66 1010.3
20260506070334 18 269 3.2 11.3 0.00 0.00 0.00 66 1010.3
20260506062312 18 150 6.4 9.7 0.00 0.00 0.00 63 1010.6
20260506061807 18 147 8.0 11.3 0.00 0.00 0.00 63 1010.5
20260506061304 18 159 4.8 8.0 0.00 0.00 0.00 63 1010.6
20260506060803 18 156 6.4 9.7 0.00 0.00 0.00 62 1010.7
20260506060300 18 168 6.4 8.0 0.00 0.00 0.00 62 1010.6
20260506051232 18 209 1.6 20.9 0.00 0.00 0.00 60 1011.3
20260506050730 18 70 4.8 6.4 0.00 0.00 0.00 61 1011.2
20260506050227 18 200 3.2 12.9 0.00 0.00 0.00 60 1011.2
20260506044718 18 156 8.0 8.0 0.00 0.00 0.00 60 1011.2
20260506044215 18 168 9.7 12.9 0.00 0.00 0.00 60 1011.1
20260506043712 18 103 3.2 6.4 0.00 0.00 0.00 60 1011.2
20260506043210 18 147 1.6 6.4 0.00 0.00 0.00 60 1011.3
20260506042709 18 280 0.0 9.7 0.00 0.00 0.00 60 1011.1
20260506042206 19 155 6.4 8.0 0.00 0.00 0.00 60 1011.2
20260506041704 19 185 3.2 6.4 0.00 0.00 0.00 59 1011.1
20260506041201 19 132 6.4 9.7 0.00 0.00 0.00 59 1011.2
20260506040659 19 131 6.4 8.0 0.00 0.00 0.00 59 1011.4
20260506040155 19 192 3.2 4.8 0.00 0.00 0.00 59 1011.3
20260506035652 19 156 4.8 6.4 0.00 0.13 0.13 59 1011.4
20260506035149 19 173 3.2 16.1 0.00 0.13 0.13 58 1011.4
20260506034646 19 241 6.4 12.9 0.00 0.13 0.13 58 1011.3
20260506034143 20 150 6.4 14.5 0.00 0.13 0.13 57 1011.3
20260506033640 20 172 4.8 16.1 0.00 0.13 0.13 57 1011.2
20260506033137 20 136 6.4 9.7 0.00 0.13 0.13 56 1011.0
20260506032634 20 219 3.2 9.7 0.00 0.13 0.13 55 1011.2
20260506032131 20 127 6.4 9.7 0.00 0.13 0.13 54 1011.3
20260506031628 20 153 3.2 6.4 0.00 0.13 0.13 53 1010.9
20260506031125 20 159 6.4 11.3 0.00 0.13 0.13 52 1011.1
20260506030624 20 172 4.8 9.7 0.00 0.13 0.13 52 1011.1
20260506030120 20 157 6.4 8.0 0.00 0.13 0.13 51 1011.2
20260506025617 20 165 8.0 14.5 0.00 0.13 0.13 50 1010.9
20260506025113 21 172 3.2 6.4 0.00 0.13 0.13 49 1011.0
20260506024611 21 179 8.0 19.3 0.00 0.13 0.13 48 1011.0
20260506024107 21 128 6.4 12.9 0.00 0.13 0.13 47 1011.1
20260506023603 21 141 6.4 11.3 0.00 0.13 0.13 47 1011.2
20260506023101 21 117 3.2 9.7 0.00 0.13 0.13 46 1011.1
20260506022558 21 186 4.8 9.7 0.00 0.13 0.13 45 1011.1
20260506022055 21 136 6.4 11.3 0.00 0.13 0.13 45 1011.1
20260506021553 21 147 6.4 11.3 0.00 0.13 0.13 45 1010.9
20260506021050 21 192 3.2 14.5 0.00 0.13 0.13 44 1010.9
20260506020547 22 158 9.7 17.7 0.00 0.13 0.13 44 1010.8
20260506020044 22 124 4.8 9.7 0.00 0.13 0.13 44 1010.9
20260506015542 22 201 9.7 22.5 0.00 0.13 0.13 44 1011.0
20260506015039 22 169 8.0 24.1 0.00 0.13 0.13 43 1010.9
20260506014536 22 156 4.8 17.7 0.00 0.13 0.13 43 1010.7
20260506014032 22 149 3.2 17.7 0.00 0.13 0.13 43 1010.8
20260506013531 22 117 3.2 17.7 0.00 0.13 0.13 43 1010.8
20260506013026 22 146 6.4 12.9 0.00 0.13 0.13 43 1010.5
20260506012523 22 98 0.0 17.7 0.00 0.13 0.13 43 1010.7
20260506012020 22 113 1.6 6.4 0.00 0.13 0.13 43 1010.6
20260506011518 22 154 4.8 8.0 0.00 0.13 0.13 44 1010.5
20260506011014 22 121 4.8 11.3 0.00 0.13 0.13 43 1010.4
20260506010513 22 165 6.4 9.7 0.00 0.13 0.13 43 1010.4
20260506010009 22 193 3.2 20.9 0.00 0.13 0.13 43 1010.4
20260506005507 22 141 8.0 11.3 0.00 0.13 0.13 43 1010.2
20260506005002 22 176 3.2 20.9 0.00 0.13 0.13 43 1010.2
20260506004500 22 129 3.2 22.5 0.00 0.13 0.13 43 1010.4
20260506003955 22 251 1.6 9.7 0.00 0.13 0.13 42 1010.0
20260506003452 23 89 4.8 19.3 0.00 0.13 0.13 41 1010.0
20260506002948 23 78 8.0 9.7 0.00 0.13 0.13 40 1010.0
20260506002445 23 138 3.2 14.5 0.00 0.13 0.13 40 1009.9
20260506001940 23 117 4.8 8.0 0.00 0.13 0.13 39 1009.9
20260506001437 23 144 8.0 11.3 0.00 0.13 0.13 38 1009.8
20260506000935 23 140 6.4 8.0 0.00 0.13 0.13 37 1009.7
20260506000432 23 175 6.4 16.1 0.00 0.13 0.13 37 1009.9
20260505235929 23 142 8.0 12.9 0.00 0.13 0.13 37 1009.5
20260505235427 23 245 6.4 11.3 0.00 0.13 0.13 37 1009.5
20260505234923 23 145 4.8 8.0 0.00 0.13 0.13 36 1009.8
20260505234421 23 190 6.4 9.7 0.00 0.13 0.13 36 1009.5
20260505233917 24 201 6.4 22.5 0.00 0.13 0.13 36 1009.7
20260505233415 24 151 3.2 11.3 0.00 0.13 0.13 35 1009.8
20260505232913 24 167 14.5 20.9 0.00 0.13 0.13 35 1009.4
20260505232410 25 180 3.2 14.5 0.00 0.13 0.13 34 1009.5
20260505231907 25 172 9.7 17.7 0.00 0.13 0.13 34 1009.5
20260505231405 25 181 3.2 19.3 0.00 0.13 0.13 33 1009.3
20260505230903 25 216 14.5 14.5 0.00 0.13 0.13 33 1009.5
20260505230400 25 143 8.0 17.7 0.00 0.13 0.13 33 1009.5
20260505225856 25 150 8.0 8.0 0.00 0.13 0.13 33 1009.4
20260505225354 25 257 8.0 22.5 0.00 0.13 0.13 32 1009.2
20260505224849 25 53 3.2 9.7 0.00 0.13 0.13 31 1009.4
20260505224346 25 236 3.2 17.7 0.00 0.13 0.13 31 1009.4
20260505223843 25 150 19.3 27.4 0.00 0.13 0.13 31 1009.8
20260505223340 25 172 3.2 24.1 0.00 0.13 0.13 31 1009.2
20260505222836 25 163 8.0 19.3 0.00 0.13 0.13 32 1009.3
20260505222332 25 324 3.2 17.7 0.00 0.13 0.13 32 1009.1
20260505221830 25 164 16.1 16.1 0.00 0.13 0.13 32 1009.2
20260505221326 25 181 3.2 19.3 0.00 0.13 0.13 31 1009.3
20260505220823 25 214 6.4 14.5 0.00 0.13 0.13 31 1009.1
20260505220320 25 118 11.3 14.5 0.00 0.13 0.13 31 1009.2
20260505215818 26 298 3.2 14.5 0.00 0.13 0.13 32 1009.2
20260505215316 25 165 11.3 14.5 0.00 0.13 0.13 31 1009.2
20260505214814 25 156 6.4 9.7 0.00 0.13 0.13 32 1009.4
20260505214311 25 177 14.5 17.7 0.00 0.13 0.13 31 1009.3
20260505213808 26 299 1.6 14.5 0.00 0.13 0.13 32 1009.3
20260505213306 25 144 19.3 20.9 0.00 0.13 0.13 32 1009.1
20260505212801 26 157 16.1 24.1 0.00 0.13 0.13 30 1009.3
20260505212259 26 183 11.3 27.4 0.00 0.13 0.13 30 1009.1
20260505211755 26 256 11.3 17.7 0.00 0.13 0.13 30 1009.0
20260505211253 26 240 12.9 17.7 0.00 0.13 0.13 30 1008.6
20260505210749 26 210 3.2 19.3 0.00 0.13 0.13 31 1008.9
20260505210246 26 167 9.7 16.1 0.00 0.13 0.13 30 1008.9
20260505205743 26 229 11.3 17.7 0.00 0.13 0.13 31 1009.1
20260505205242 26 240 3.2 30.6 0.00 0.13 0.13 30 1008.8
20260505204737 26 248 8.0 25.7 0.00 0.13 0.13 30 1009.0
20260505204236 26 164 12.9 27.4 0.00 0.13 0.13 29 1009.1
20260505203732 26 175 16.1 22.5 0.00 0.13 0.13 29 1008.9
20260505203229 26 145 19.3 32.2 0.00 0.13 0.13 28 1009.1
20260505202725 26 179 14.5 33.8 0.00 0.13 0.13 28 1009.1
20260505202221 26 256 11.3 19.3 0.00 0.13 0.13 28 1009.1
20260505201718 26 177 4.8 17.7 0.00 0.13 0.13 29 1008.9
20260505201216 26 168 12.9 27.4 0.00 0.13 0.13 28 1009.1
20260505200714 26 189 6.4 22.5 0.00 0.13 0.13 28 1009.1
20260505200211 26 194 9.7 25.7 0.00 0.13 0.13 27 1009.2
20260505195706 27 197 19.3 20.9 0.00 0.13 0.13 27 1009.2
20260505195204 27 242 4.8 24.1 0.00 0.13 0.13 28 1009.0
20260505194701 26 180 12.9 27.4 0.00 0.13 0.13 26 1008.9
20260505194157 27 176 11.3 35.4 0.00 0.13 0.13 27 1009.2
20260505193653 26 282 12.9 27.4 0.00 0.13 0.13 27 1009.1
20260505193151 26 176 20.9 24.1 0.00 0.13 0.13 26 1009.1